CCA1301 ZBAA-ZGGG

Flight info

Callsign CCA1301
Flight time N/A
Altitude 40100
Route RUSDO9Z RUSDO W45 LYA/K0896S1250 W45 ML/K0898S1220 W45 NUPTI/K0900S1250 W45 VESUX/K0896S1310 W45 IKAVO IKAVO8
Aircraft A359/H-SDE2E3GHIJ3J4J5LM1ORWXY/LB1D1

Departure

Time 2026-05-05 22:08
Airport Beijing Capital International Airport (ZBAA)

Arrival

Time N/A
Airport Guangzhou Baiyun International Airport (ZGGG)
Time Latitude Longitude Altitude Speed Heading
2026-05-05 21:57 40.06734 116.60886 119 ft 0 kts 263°
2026-05-05 21:58 40.06735 116.60900 116 ft 4 kts 264°
2026-05-05 21:58 40.06737 116.60935 118 ft 4 kts 270°
2026-05-05 21:59 40.06735 116.60970 117 ft 4 kts 281°
2026-05-05 21:59 40.06727 116.61002 117 ft 4 kts 313°
2026-05-05 21:59 40.06715 116.61013 117 ft 0 kts 352°
2026-05-05 22:02 40.06720 116.61012 120 ft 6 kts 352°
2026-05-05 22:02 40.06798 116.60997 119 ft 13 kts 351°
2026-05-05 22:02 40.06839 116.60969 117 ft 2 kts 287°
2026-05-05 22:03 40.06837 116.60886 116 ft 20 kts 266°
2026-05-05 22:03 40.06818 116.60652 120 ft 27 kts 263°
2026-05-05 22:03 40.06796 116.60399 116 ft 29 kts 263°
2026-05-05 22:03 40.06765 116.60134 115 ft 27 kts 247°
2026-05-05 22:04 40.06634 116.60077 117 ft 19 kts 173°
2026-05-05 22:04 40.06458 116.60105 115 ft 29 kts 173°
2026-05-05 22:04 40.06250 116.60137 115 ft 31 kts 173°
2026-05-05 22:04 40.06034 116.60170 115 ft 32 kts 173°
2026-05-05 22:05 40.05818 116.60205 116 ft 31 kts 173°
2026-05-05 22:05 40.05617 116.60236 115 ft 22 kts 175°
2026-05-05 22:05 40.05549 116.60194 113 ft 8 kts 237°
2026-05-05 22:05 40.05541 116.60162 113 ft 4 kts 258°
2026-05-05 22:06 40.05541 116.60157 114 ft 0 kts 261°
2026-05-05 22:07 40.05540 116.60151 114 ft 5 kts 266°
2026-05-05 22:07 40.05577 116.60036 113 ft 16 kts 309°
2026-05-05 22:07 40.05681 116.59990 115 ft 23 kts 352°
2026-05-05 22:08 40.06100 116.59923 117 ft 98 kts 353°
2026-05-05 22:08 40.07001 116.59783 119 ft 160 kts 353°
2026-05-05 22:08 40.08200 116.59588 658 ft 173 kts 353°
2026-05-05 22:08 40.09389 116.59379 1460 ft 178 kts 352°
2026-05-05 22:09 40.10665 116.59153 2012 ft 190 kts 351°
2026-05-05 22:09 40.12014 116.58908 2605 ft 200 kts 350°
2026-05-05 22:09 40.13403 116.58650 3200 ft 208 kts 350°
2026-05-05 22:09 40.14877 116.58376 3767 ft 221 kts 350°
2026-05-05 22:10 40.16458 116.58088 4302 ft 236 kts 350°
2026-05-05 22:10 40.18136 116.57802 4917 ft 248 kts 351°
2026-05-05 22:10 40.19891 116.57521 5563 ft 259 kts 350°
2026-05-05 22:10 40.21717 116.57246 6237 ft 269 kts 350°
2026-05-05 22:11 40.23609 116.56973 6909 ft 278 kts 351°
2026-05-05 22:11 40.25574 116.56690 7619 ft 288 kts 350°
2026-05-05 22:11 40.27589 116.56324 8366 ft 297 kts 347°
2026-05-05 22:11 40.29433 116.55284 9433 ft 287 kts 318°
2026-05-05 22:12 40.30655 116.53246 10222 ft 290 kts 297°
2026-05-05 22:12 40.31597 116.50799 10580 ft 310 kts 287°
2026-05-05 22:12 40.32018 116.47995 10947 ft 328 kts 272°
2026-05-05 22:12 40.31973 116.44929 11423 ft 343 kts 266°
2026-05-05 22:13 40.31846 116.41783 12135 ft 349 kts 267°
2026-05-05 22:13 40.31761 116.38575 12920 ft 353 kts 268°
2026-05-05 22:13 40.31714 116.35338 13727 ft 357 kts 269°
2026-05-05 22:13 40.31688 116.32075 14447 ft 360 kts 269°
2026-05-05 22:14 40.31672 116.28777 15194 ft 362 kts 269°
2026-05-05 22:14 40.31663 116.25496 15992 ft 365 kts 269°
2026-05-05 22:14 40.31657 116.22117 16804 ft 368 kts 269°
2026-05-05 22:14 40.31647 116.18758 17603 ft 370 kts 269°
2026-05-05 22:15 40.31640 116.15419 18322 ft 373 kts 270°
2026-05-05 22:15 40.31634 116.12020 19038 ft 374 kts 270°
2026-05-05 22:15 40.31627 116.08589 19747 ft 377 kts 270°
2026-05-05 22:15 40.31603 116.05147 20474 ft 379 kts 268°
2026-05-05 22:16 40.31308 116.01709 21226 ft 381 kts 259°
2026-05-05 22:16 40.30517 115.98368 21954 ft 386 kts 249°
2026-05-05 22:16 40.29206 115.95267 22642 ft 394 kts 238°
2026-05-05 22:16 40.27397 115.92524 23226 ft 405 kts 227°
2026-05-05 22:17 40.25110 115.90279 23727 ft 417 kts 215°
2026-05-05 22:17 40.22438 115.88698 24308 ft 428 kts 204°
2026-05-05 22:17 40.19566 115.87581 24843 ft 431 kts 204°
2026-05-05 22:17 40.16806 115.86113 25398 ft 427 kts 212°
2026-05-05 22:18 40.14139 115.84378 25962 ft 429 kts 213°
2026-05-05 22:18 40.11515 115.82613 26519 ft 431 kts 214°
2026-05-05 22:18 40.08832 115.80804 27032 ft 435 kts 214°
2026-05-05 22:18 40.06143 115.78984 27586 ft 436 kts 214°
2026-05-05 22:19 40.03435 115.77162 28080 ft 439 kts 214°
2026-05-05 22:19 40.00708 115.75321 28554 ft 443 kts 214°
2026-05-05 22:19 39.97963 115.73471 29075 ft 445 kts 215°
2026-05-05 22:19 39.95198 115.71610 29565 ft 448 kts 215°
2026-05-05 22:20 39.92412 115.69732 30033 ft 451 kts 215°
2026-05-05 22:20 39.89611 115.67849 30453 ft 455 kts 215°
2026-05-05 22:20 39.86857 115.65925 30832 ft 452 kts 219°
2026-05-05 22:20 39.84391 115.63462 31134 ft 443 kts 232°
2026-05-05 22:21 39.82516 115.60357 31537 ft 433 kts 244°
2026-05-05 22:21 39.81051 115.56942 31917 ft 433 kts 247°
2026-05-05 22:21 39.79650 115.53477 32342 ft 433 kts 248°
2026-05-05 22:21 39.78243 115.50001 32741 ft 434 kts 247°
2026-05-05 22:22 39.76829 115.46536 33277 ft 432 kts 248°
2026-05-05 22:22 39.75426 115.43108 33863 ft 428 kts 248°
2026-05-05 22:22 39.74047 115.39680 34318 ft 425 kts 248°
2026-05-05 22:22 39.72699 115.36267 34659 ft 425 kts 249°
2026-05-05 22:23 39.71356 115.32831 34901 ft 427 kts 249°
2026-05-05 22:23 39.70015 115.29400 35292 ft 425 kts 249°
2026-05-05 22:23 39.68690 115.26031 35638 ft 424 kts 249°
2026-05-05 22:23 39.67343 115.22618 35964 ft 423 kts 249°
2026-05-05 22:24 39.65997 115.19223 36344 ft 422 kts 250°
2026-05-05 22:24 39.64651 115.15841 36705 ft 421 kts 249°
2026-05-05 22:24 39.63309 115.12476 37066 ft 419 kts 250°
2026-05-05 22:24 39.61970 115.09123 37339 ft 419 kts 249°
2026-05-05 22:25 39.60626 115.05773 37627 ft 418 kts 250°
2026-05-05 22:25 39.59280 115.02433 37867 ft 418 kts 250°
2026-05-05 22:25 39.57933 114.99078 38084 ft 419 kts 250°
2026-05-05 22:25 39.56592 114.95731 38424 ft 417 kts 250°
2026-05-05 22:26 39.55257 114.92397 38655 ft 417 kts 250°
2026-05-05 22:26 39.53918 114.89056 38833 ft 418 kts 250°
2026-05-05 22:26 39.52578 114.85715 39016 ft 418 kts 250°
2026-05-05 22:26 39.51248 114.82406 39185 ft 419 kts 250°
2026-05-05 22:27 39.49896 114.79052 39385 ft 419 kts 249°
2026-05-05 22:27 39.48546 114.75705 39566 ft 420 kts 249°
2026-05-05 22:27 39.47192 114.72343 39686 ft 420 kts 249°
2026-05-05 22:27 39.45835 114.68978 39798 ft 423 kts 249°
2026-05-05 22:28 39.44465 114.65592 39839 ft 425 kts 249°
2026-05-05 22:28 39.41719 114.58841 39845 ft 423 kts 249°
2026-05-05 22:29 39.38983 114.52111 39840 ft 422 kts 249°
2026-05-05 22:29 39.36265 114.45429 39847 ft 423 kts 249°
2026-05-05 22:30 39.33506 114.38713 39830 ft 423 kts 249°
2026-05-05 22:30 39.30744 114.31998 39862 ft 423 kts 249°
2026-05-05 22:31 39.27984 114.25257 39845 ft 424 kts 249°
2026-05-05 22:31 39.24680 114.18854 39843 ft 437 kts 237°
2026-05-05 22:32 39.20005 114.13699 39840 ft 457 kts 220°
2026-05-05 22:32 39.17145 114.11809 39843 ft 469 kts 212°
2026-05-05 22:32 39.13983 114.10407 39848 ft 477 kts 206°
2026-05-05 22:33 39.07598 114.08121 39840 ft 481 kts 204°
2026-05-05 22:33 39.01126 114.05925 39829 ft 480 kts 205°
2026-05-05 22:34 38.94670 114.03693 39817 ft 480 kts 205°
2026-05-05 22:34 38.88230 114.01392 39825 ft 481 kts 205°
2026-05-05 22:35 38.81790 113.99114 39821 ft 480 kts 205°
2026-05-05 22:35 38.75378 113.96856 39813 ft 481 kts 205°
2026-05-05 22:36 38.68918 113.94569 39820 ft 481 kts 205°
2026-05-05 22:36 38.62460 113.92311 39802 ft 481 kts 204°
2026-05-05 22:37 38.56001 113.90036 39806 ft 481 kts 204°
2026-05-05 22:37 38.49494 113.87743 39819 ft 489 kts 204°
2026-05-05 22:38 38.42882 113.85439 39814 ft 493 kts 204°
2026-05-05 22:38 38.36295 113.83152 39808 ft 494 kts 204°
2026-05-05 22:39 38.29660 113.80849 39812 ft 494 kts 204°
2026-05-05 22:39 38.23011 113.78548 39810 ft 494 kts 204°
2026-05-05 22:40 38.16375 113.76246 39808 ft 495 kts 204°
2026-05-05 22:40 38.09722 113.73958 39819 ft 494 kts 204°
2026-05-05 22:41 38.03140 113.71701 39819 ft 493 kts 204°
2026-05-05 22:41 37.96522 113.69432 39827 ft 493 kts 204°
2026-05-05 22:42 37.89905 113.67164 39830 ft 492 kts 204°
2026-05-05 22:42 37.83286 113.64901 39837 ft 492 kts 204°
2026-05-05 22:43 37.76668 113.62643 39829 ft 493 kts 204°
2026-05-05 22:43 37.70049 113.60387 39854 ft 493 kts 204°
2026-05-05 22:44 37.63462 113.58147 39860 ft 493 kts 204°
2026-05-05 22:44 37.56834 113.55897 39866 ft 493 kts 204°
2026-05-05 22:45 37.51313 113.54025 39871 ft 493 kts 204°
2026-05-05 22:45 37.44685 113.51782 39879 ft 493 kts 203°
2026-05-05 22:46 37.38046 113.49542 39872 ft 493 kts 203°
2026-05-05 22:46 37.31437 113.47314 39910 ft 496 kts 203°
2026-05-05 22:47 37.24762 113.45069 39917 ft 497 kts 203°
2026-05-05 22:47 37.18073 113.42826 39904 ft 497 kts 203°
2026-05-05 22:48 37.11395 113.40591 39912 ft 495 kts 203°
2026-05-05 22:48 37.04729 113.38362 39921 ft 495 kts 203°
2026-05-05 22:49 36.98104 113.36150 39922 ft 495 kts 203°
2026-05-05 22:49 36.91441 113.33929 39928 ft 494 kts 203°
2026-05-05 22:50 36.84804 113.31718 39923 ft 493 kts 203°
2026-05-05 22:50 36.78219 113.29533 39915 ft 493 kts 203°
2026-05-05 22:51 36.71582 113.27334 39906 ft 492 kts 203°
2026-05-05 22:51 36.64961 113.25145 39901 ft 492 kts 203°
2026-05-05 22:52 36.58343 113.22958 39916 ft 492 kts 203°
2026-05-05 22:52 36.51730 113.20776 39915 ft 492 kts 203°
2026-05-05 22:53 36.45109 113.18593 39910 ft 492 kts 203°
2026-05-05 22:53 36.38532 113.16432 39906 ft 492 kts 203°
2026-05-05 22:54 36.31908 113.14261 39898 ft 491 kts 203°
2026-05-05 22:54 36.25306 113.12069 39908 ft 487 kts 205°
2026-05-05 22:55 36.19044 113.09111 39922 ft 479 kts 211°
2026-05-05 22:55 36.12907 113.05927 39921 ft 477 kts 211°
2026-05-05 22:56 36.06789 113.02709 39921 ft 477 kts 211°
2026-05-05 22:56 36.00721 112.99535 39918 ft 477 kts 211°
2026-05-05 22:57 35.94594 112.96349 39923 ft 477 kts 211°
2026-05-05 22:57 35.88473 112.93175 39926 ft 477 kts 211°
2026-05-05 22:58 35.82340 112.90001 39918 ft 478 kts 211°
2026-05-05 22:58 35.76208 112.86835 39919 ft 477 kts 211°
2026-05-05 22:59 35.70132 112.83674 39885 ft 477 kts 211°
2026-05-05 22:59 35.64010 112.80477 39918 ft 478 kts 211°
2026-05-05 23:00 35.54827 112.75714 39911 ft 476 kts 211°
2026-05-05 23:00 35.48749 112.72543 39885 ft 475 kts 211°
2026-05-05 23:01 35.42691 112.69377 39910 ft 476 kts 211°
2026-05-05 23:01 35.36590 112.66203 39898 ft 476 kts 211°
2026-05-05 23:02 35.30480 112.63035 39890 ft 476 kts 211°
2026-05-05 23:02 35.24373 112.59871 39883 ft 477 kts 210°
2026-05-05 23:03 35.18256 112.56711 39890 ft 477 kts 210°
2026-05-05 23:03 35.12117 112.53590 39880 ft 479 kts 208°
2026-05-05 23:04 35.05724 112.51035 39859 ft 484 kts 204°
2026-05-05 23:04 34.99311 112.48670 39875 ft 485 kts 204°
2026-05-05 23:05 34.92792 112.46302 39869 ft 485 kts 204°
2026-05-05 23:05 34.86366 112.43961 39874 ft 484 kts 204°
2026-05-05 23:06 34.79918 112.41606 39870 ft 483 kts 204°
2026-05-05 23:06 34.73286 112.39923 39874 ft 495 kts 191°
2026-05-05 23:07 34.66315 112.40069 39879 ft 504 kts 183°
2026-05-05 23:07 34.59343 112.40681 39866 ft 505 kts 182°
2026-05-05 23:08 34.52349 112.41348 39876 ft 504 kts 182°
2026-05-05 23:08 34.45347 112.41977 39867 ft 504 kts 182°
2026-05-05 23:09 34.38347 112.42580 39881 ft 504 kts 183°
2026-05-05 23:09 34.31380 112.43172 39877 ft 504 kts 183°
2026-05-05 23:10 34.24375 112.43767 39885 ft 504 kts 183°
2026-05-05 23:10 34.17384 112.44362 39888 ft 504 kts 183°
2026-05-05 23:11 34.10391 112.44956 39884 ft 503 kts 182°
2026-05-05 23:11 34.03405 112.45549 39891 ft 503 kts 182°
2026-05-05 23:12 33.96460 112.46137 39890 ft 503 kts 183°
2026-05-05 23:12 33.89469 112.46726 39897 ft 504 kts 183°
2026-05-05 23:13 33.82466 112.47317 39896 ft 504 kts 182°
2026-05-05 23:13 33.75461 112.47909 39899 ft 504 kts 182°
2026-05-05 23:14 33.68457 112.48499 39905 ft 504 kts 182°
2026-05-05 23:14 33.61464 112.49097 39902 ft 504 kts 182°
2026-05-05 23:15 33.54492 112.49691 39907 ft 505 kts 182°
2026-05-05 23:15 33.47470 112.50284 39913 ft 505 kts 182°
2026-05-05 23:16 33.40451 112.50879 39915 ft 505 kts 182°
2026-05-05 23:16 33.33431 112.51473 39914 ft 507 kts 182°
2026-05-05 23:17 33.26381 112.52070 39915 ft 508 kts 182°
2026-05-05 23:17 33.19377 112.52663 39913 ft 508 kts 182°
2026-05-05 23:18 33.12322 112.53260 39890 ft 508 kts 182°
2026-05-05 23:18 33.05260 112.53854 39910 ft 510 kts 182°
2026-05-05 23:19 32.98168 112.54451 39908 ft 511 kts 182°
2026-05-05 23:19 32.91131 112.54433 39908 ft 499 kts 194°
2026-05-05 23:20 32.84447 112.52581 39909 ft 492 kts 202°
2026-05-05 23:20 32.77857 112.50344 39899 ft 493 kts 202°
2026-05-05 23:21 32.71247 112.48147 39903 ft 493 kts 202°
2026-05-05 23:21 32.64630 112.45990 39883 ft 493 kts 201°
2026-05-05 23:22 32.58048 112.43856 39900 ft 492 kts 201°
2026-05-05 23:22 32.51436 112.41713 39899 ft 492 kts 201°
2026-05-05 23:23 32.44824 112.39569 39899 ft 492 kts 201°
2026-05-05 23:23 32.38225 112.37433 39893 ft 492 kts 201°
2026-05-05 23:24 32.31602 112.35292 39896 ft 493 kts 201°
2026-05-05 23:24 32.24976 112.33154 39902 ft 493 kts 201°
2026-05-05 23:25 32.18390 112.31033 39896 ft 493 kts 201°
2026-05-05 23:25 32.11755 112.28899 39899 ft 494 kts 201°
2026-05-05 23:26 32.05035 112.27058 39896 ft 499 kts 197°
2026-05-05 23:26 31.98194 112.25615 39896 ft 500 kts 196°
2026-05-05 23:27 31.91333 112.24236 39904 ft 500 kts 196°
2026-05-05 23:27 31.84470 112.22861 39904 ft 500 kts 196°
2026-05-05 23:28 31.77606 112.21477 39904 ft 500 kts 196°
2026-05-05 23:28 31.70789 112.20099 39904 ft 500 kts 196°
2026-05-05 23:29 31.63932 112.18714 39907 ft 500 kts 196°
2026-05-05 23:29 31.57069 112.17330 39911 ft 500 kts 196°
2026-05-05 23:30 31.51368 112.16183 39911 ft 501 kts 196°
2026-05-05 23:30 31.43339 112.14572 39894 ft 500 kts 196°
2026-05-05 23:31 31.36507 112.13148 39926 ft 500 kts 197°
2026-05-05 23:31 31.29713 112.11453 39924 ft 499 kts 198°
2026-05-05 23:32 31.22914 112.09716 39927 ft 499 kts 198°
2026-05-05 23:32 31.16111 112.08022 39931 ft 499 kts 198°
2026-05-05 23:33 31.09344 112.06367 39931 ft 500 kts 198°
2026-05-05 23:33 31.02534 112.04709 39944 ft 500 kts 198°
2026-05-05 23:34 30.96860 112.03329 39933 ft 500 kts 198°
2026-05-05 23:34 30.90054 112.01674 39938 ft 500 kts 198°
2026-05-05 23:35 30.83243 112.00020 39936 ft 500 kts 198°
2026-05-05 23:35 30.76431 111.98368 39936 ft 500 kts 198°
2026-05-05 23:36 30.69609 111.96716 39937 ft 500 kts 198°
2026-05-05 23:36 30.62802 111.95076 39937 ft 500 kts 198°
2026-05-05 23:37 30.56024 111.93447 39934 ft 500 kts 198°
2026-05-05 23:37 30.49202 111.91811 39932 ft 500 kts 198°
2026-05-05 23:38 30.42377 111.90176 39921 ft 500 kts 198°
2026-05-05 23:38 30.35557 111.88544 39930 ft 501 kts 198°
2026-05-05 23:39 30.28721 111.86912 39931 ft 501 kts 198°
2026-05-05 23:39 30.21892 111.85283 39935 ft 501 kts 198°
2026-05-05 23:40 30.15052 111.83654 39931 ft 502 kts 198°
2026-05-05 23:40 30.08247 111.82035 39942 ft 502 kts 198°
2026-05-05 23:41 30.01398 111.80409 39943 ft 502 kts 198°
2026-05-05 23:41 29.94544 111.78784 39945 ft 502 kts 198°
2026-05-05 23:42 29.87698 111.77163 39930 ft 503 kts 198°
2026-05-05 23:42 29.80842 111.75542 39945 ft 503 kts 198°
2026-05-05 23:43 29.73980 111.73921 39949 ft 503 kts 198°
2026-05-05 23:43 29.67113 111.72301 39936 ft 503 kts 198°
2026-05-05 23:44 29.60299 111.70696 39949 ft 504 kts 198°
2026-05-05 23:44 29.53425 111.69080 39948 ft 504 kts 198°
2026-05-05 23:45 29.46551 111.67466 39951 ft 504 kts 198°
2026-05-05 23:45 29.39685 111.65856 39951 ft 504 kts 198°
2026-05-05 23:46 29.32685 111.64726 39951 ft 511 kts 190°
2026-05-05 23:46 29.25625 111.64264 39951 ft 513 kts 189°
2026-05-05 23:47 29.18488 111.63910 39951 ft 513 kts 188°
2026-05-05 23:47 29.11350 111.63558 39950 ft 513 kts 189°
2026-05-05 23:48 29.04194 111.63188 39954 ft 513 kts 189°
2026-05-05 23:48 28.97099 111.62815 39953 ft 514 kts 189°
2026-05-05 23:49 28.89959 111.62438 39953 ft 514 kts 189°
2026-05-05 23:49 28.82814 111.62053 39952 ft 513 kts 189°
2026-05-05 23:50 28.75722 111.61337 39954 ft 511 kts 192°
2026-05-05 23:50 28.68640 111.60470 39955 ft 511 kts 192°
2026-05-05 23:51 28.61547 111.59646 39957 ft 511 kts 192°
2026-05-05 23:51 28.54453 111.58868 39961 ft 512 kts 192°
2026-05-05 23:52 28.47391 111.58109 39967 ft 513 kts 192°
2026-05-05 23:52 28.40280 111.57351 39967 ft 513 kts 192°
2026-05-05 23:53 28.33175 111.56600 39957 ft 513 kts 192°
2026-05-05 23:53 28.26052 111.55844 39983 ft 514 kts 192°
2026-05-05 23:54 28.18975 111.55096 39981 ft 514 kts 192°
2026-05-05 23:54 28.11843 111.54343 39991 ft 514 kts 192°
2026-05-05 23:55 28.04727 111.53592 39991 ft 514 kts 192°
2026-05-05 23:55 27.97579 111.52842 39996 ft 515 kts 191°
2026-05-05 23:56 27.90473 111.52098 39994 ft 515 kts 192°
2026-05-05 23:56 27.83333 111.51345 40002 ft 515 kts 192°
2026-05-05 23:57 27.76181 111.50596 39995 ft 516 kts 192°
2026-05-05 23:57 27.69030 111.49849 40000 ft 516 kts 191°
2026-05-05 23:58 27.61922 111.49108 40003 ft 516 kts 192°
2026-05-05 23:58 27.54763 111.48361 40003 ft 516 kts 191°
2026-05-05 23:59 27.47607 111.47616 40008 ft 517 kts 191°
2026-05-05 23:59 27.40436 111.46869 40007 ft 517 kts 191°
2026-05-06 00:00 27.33314 111.46130 40009 ft 517 kts 191°
2026-05-06 00:00 27.26136 111.45386 40009 ft 517 kts 191°
2026-05-06 00:01 27.18948 111.44642 40006 ft 518 kts 191°
2026-05-06 00:01 27.11766 111.43899 40010 ft 518 kts 191°
2026-05-06 00:02 27.04624 111.43162 40009 ft 518 kts 191°
2026-05-06 00:02 26.97355 111.43350 40007 ft 531 kts 175°
2026-05-06 00:03 26.93763 111.44431 40006 ft 539 kts 163°
2026-05-06 00:03 26.90361 111.46251 40009 ft 546 kts 152°
2026-05-06 00:03 26.87295 111.48788 40013 ft 551 kts 140°
2026-05-06 00:03 26.84668 111.51922 40014 ft 553 kts 131°
2026-05-06 00:04 26.79922 111.58661 40011 ft 555 kts 128°
2026-05-06 00:04 26.75265 111.65562 40012 ft 556 kts 128°
2026-05-06 00:05 26.68202 111.75859 40014 ft 555 kts 129°
2026-05-06 00:06 26.63455 111.82690 40011 ft 555 kts 129°
2026-05-06 00:06 26.58706 111.89502 40012 ft 555 kts 129°
2026-05-06 00:07 26.53951 111.96318 40018 ft 555 kts 129°
2026-05-06 00:07 26.49227 112.03081 40014 ft 555 kts 129°
2026-05-06 00:08 26.44465 112.09888 40018 ft 555 kts 129°
2026-05-06 00:08 26.39710 112.16677 40017 ft 555 kts 129°
2026-05-06 00:09 26.34945 112.23469 40025 ft 555 kts 129°
2026-05-06 00:09 26.30182 112.30248 40025 ft 555 kts 129°
2026-05-06 00:10 26.25441 112.36986 40014 ft 555 kts 129°
2026-05-06 00:10 26.20679 112.43745 40034 ft 555 kts 129°
2026-05-06 00:11 26.15911 112.50505 40038 ft 555 kts 129°
2026-05-06 00:11 26.11127 112.57272 40038 ft 555 kts 129°
2026-05-06 00:12 26.06349 112.64019 40052 ft 555 kts 129°
2026-05-06 00:12 26.01562 112.70771 40046 ft 555 kts 129°
2026-05-06 00:13 25.96810 112.77464 40047 ft 555 kts 129°
2026-05-06 00:13 25.92019 112.84204 40052 ft 556 kts 129°
2026-05-06 00:14 25.87221 112.90942 40041 ft 556 kts 129°
2026-05-06 00:14 25.82383 112.97648 40050 ft 555 kts 133°
2026-05-06 00:15 25.76484 113.03030 40075 ft 546 kts 154°
2026-05-06 00:15 25.73042 113.04745 40072 ft 539 kts 166°
2026-05-06 00:15 25.69483 113.05700 40068 ft 530 kts 177°
2026-05-06 00:16 25.62184 113.05965 40078 ft 523 kts 187°
2026-05-06 00:16 25.54885 113.05728 40083 ft 523 kts 187°
2026-05-06 00:17 25.47647 113.05465 40088 ft 523 kts 187°
2026-05-06 00:17 25.40375 113.05251 40097 ft 523 kts 187°
2026-05-06 00:18 25.33071 113.05064 40097 ft 523 kts 187°
2026-05-06 00:18 25.25794 113.04884 40094 ft 523 kts 187°
2026-05-06 00:19 25.18504 113.04702 40101 ft 523 kts 187°
2026-05-06 00:19 25.11222 113.04519 40101 ft 523 kts 187°
2026-05-06 00:20 25.03988 113.04337 40105 ft 523 kts 187°
2026-05-06 00:20 24.96696 113.04154 40105 ft 523 kts 186°
2026-05-06 00:21 24.90645 113.04001 40114 ft 523 kts 186°
2026-05-06 00:21 24.83355 113.03819 40115 ft 523 kts 186°
2026-05-06 00:22 24.74897 113.03608 40112 ft 521 kts 187°
2026-05-06 00:22 24.68882 113.03461 40109 ft 513 kts 186°
2026-05-06 00:22 24.65343 113.03376 39932 ft 501 kts 186°
2026-05-06 00:23 24.61931 113.03297 39131 ft 493 kts 186°
2026-05-06 00:23 24.58485 113.03211 37732 ft 496 kts 186°
2026-05-06 00:23 24.55017 113.03119 36345 ft 498 kts 186°
2026-05-06 00:23 24.51542 113.03027 35111 ft 498 kts 186°
2026-05-06 00:24 24.48091 113.03011 34287 ft 490 kts 182°
2026-05-06 00:24 24.44747 113.03413 33293 ft 490 kts 173°
2026-05-06 00:24 24.41404 113.04211 32360 ft 493 kts 170°
2026-05-06 00:24 24.38047 113.05100 31453 ft 495 kts 169°
2026-05-06 00:25 24.34701 113.06007 30515 ft 495 kts 168°
2026-05-06 00:25 24.31350 113.06911 29463 ft 495 kts 168°
2026-05-06 00:25 24.28039 113.07808 28660 ft 481 kts 168°
2026-05-06 00:25 24.24795 113.08686 27992 ft 480 kts 168°
2026-05-06 00:26 24.21560 113.09561 27317 ft 476 kts 168°
2026-05-06 00:26 24.18383 113.10420 26625 ft 469 kts 168°
2026-05-06 00:26 24.15260 113.11266 25948 ft 467 kts 167°
2026-05-06 00:26 24.12107 113.12122 25249 ft 466 kts 167°
2026-05-06 00:27 24.08967 113.12968 24556 ft 464 kts 167°
2026-05-06 00:27 24.05833 113.13812 23866 ft 463 kts 167°
2026-05-06 00:27 24.02703 113.14658 23092 ft 462 kts 167°
2026-05-06 00:27 23.99591 113.15490 22348 ft 459 kts 167°
2026-05-06 00:28 23.96490 113.16311 21637 ft 454 kts 168°
2026-05-06 00:28 23.93427 113.17122 20933 ft 451 kts 168°
2026-05-06 00:28 23.90434 113.17915 20220 ft 447 kts 168°
2026-05-06 00:28 23.87419 113.18714 19500 ft 444 kts 168°
2026-05-06 00:29 23.84423 113.19509 18761 ft 442 kts 168°
2026-05-06 00:29 23.81438 113.20300 17981 ft 440 kts 168°
2026-05-06 00:29 23.78466 113.21087 17188 ft 437 kts 169°
2026-05-06 00:29 23.75521 113.21868 16430 ft 433 kts 169°
2026-05-06 00:30 23.72603 113.22640 15665 ft 430 kts 169°
2026-05-06 00:30 23.69708 113.23405 14911 ft 427 kts 169°
2026-05-06 00:30 23.66799 113.23898 14157 ft 420 kts 181°
2026-05-06 00:30 23.63918 113.23610 13397 ft 412 kts 192°
2026-05-06 00:31 23.61108 113.23080 12614 ft 408 kts 191°
2026-05-06 00:31 23.58293 113.22780 11781 ft 407 kts 184°
2026-05-06 00:31 23.55459 113.23045 10590 ft 415 kts 171°